New Castle, DE

4:21 AM EST on February 21, 2017 (GMT -0500)
New Castle County

Weather History for KILG - July, 2013

Change the Weather History Date:

Tuesday, July 16, 2013

  Actual Average Record
Temperature  
Mean Temperature 86 °F 77 °F  
Max Temperature 95 °F 86 °F 100 °F (1983)
Min Temperature 77 °F 68 °F 49 °F (1929)
Degree Days  
Heating Degree Days 0 0  
Month to date heating degree days 0 0  
Since 1 June heating degree days 0 15  
Since 1 July heating degree days 0 0  
Cooling Degree Days 21 12  
Month to date cooling degree days 256 188  
Year to date cooling degree days 616 498  
Since 1 June cooling degree days 509 419  
Growing Degree Days 36 (Base 50)    
Moisture  
Dew Point 70 °F    
Average Humidity 63    
Maximum Humidity 85    
Minimum Humidity 41    
Precipitation  
Precipitation 0.00 in 0.15 in 2.70 in (1926)
Month to date precipitation 1.80 2.38  
Year to date precipitation 28.86 23.32  
Snow  
Snow 0.00 in 0.00 in 0.80 in (1934)
Month to date snowfall 0.0 0.0  
Since 1 June snowfall 0.0 0.0  
Since 1 July snowfall 0.0 0.0  
Snow Depth 0.00 in    
Sea Level Pressure  
Sea Level Pressure 30.19 in    
Wind  
Wind Speed 8 mph (NNW)    
Max Wind Speed 16 mph    
Max Gust Speed 22 mph    
Visibility 10 miles    
Events      
T = Trace of Precipitation, MM = Missing Value Source: NWS Daily Summary

Daily Weather History Graph

Daily Weather History Graph

Search for Another Location

Airport or City:

Trip Planner

Search our weather history database for the weather conditions in past years. The results will help you decide how hot, cold, wet, or windy it might be!

Date:

Astronomy

Jul. 16, 2013 Rise Set
Actual Time 5:48 AM EDT 8:28 PM EDT
Civil Twilight 5:16 AM EDT 9:00 PM EDT
Nautical Twilight 4:37 AM EDT 9:39 PM EDT
Astronomical Twilight 3:52 AM EDT 10:23 PM EDT
Moon 2:07 PM EDT (7/16) 12:15 AM EDT (7/16)
Length of Visible Light 15h 43m
Length of Day
14h 40m
First Quarter, 56% of the Moon is Illuminated
Jul 16
First Quarter
Jul 22
Full
Jul 29
Last Quarter
Aug 6
New
Aug 14
First Quarter

Hourly Weather History & Observations

Time (EDT) Temp. Heat Index Dew Point Humidity Pressure Visibility Wind Dir Wind Speed Gust Speed Precip Events Conditions
12:51 AM 82.9 °F 90.2 °F 75.0 °F 77% 30.19 in 10.0 mi Calm Calm - N/A   Partly Cloudy
1:51 AM 80.1 °F 84.2 °F 73.0 °F 79% 30.18 in 10.0 mi NW 3.5 mph - N/A   Clear
2:51 AM 78.1 °F - 73.0 °F 84% 30.18 in 10.0 mi NW 4.6 mph - N/A   Clear
3:51 AM 78.1 °F - 73.0 °F 84% 30.18 in 10.0 mi NNW 5.8 mph - N/A   Scattered Clouds
4:51 AM 77.0 °F - 72.0 °F 84% 30.19 in 10.0 mi NNW 4.6 mph - N/A   Clear
5:51 AM 78.1 °F - 72.0 °F 81% 30.20 in 10.0 mi NNW 4.6 mph - N/A   Clear
6:51 AM 80.1 °F 83.8 °F 72.0 °F 76% 30.21 in 10.0 mi NNW 6.9 mph - N/A   Clear
7:51 AM 82.0 °F 85.5 °F 69.1 °F 65% 30.22 in 10.0 mi North 8.1 mph - N/A   Partly Cloudy
8:51 AM 84.9 °F 88.8 °F 69.1 °F 59% 30.22 in 10.0 mi North 12.7 mph - N/A   Clear
9:51 AM 87.1 °F 90.6 °F 68.0 °F 53% 30.22 in 10.0 mi NNE 13.8 mph 18.4 mph N/A   Clear
10:51 AM 90.0 °F 92.8 °F 66.9 °F 46% 30.22 in 10.0 mi North 10.4 mph - N/A   Clear
11:51 AM 91.0 °F 94.3 °F 66.9 °F 45% 30.22 in 10.0 mi North 13.8 mph - N/A   Clear
12:51 PM 93.0 °F 96.4 °F 66.9 °F 42% 30.20 in 10.0 mi North 16.1 mph - N/A   Clear
1:51 PM 93.9 °F 97.5 °F 66.9 °F 41% 30.19 in 10.0 mi North 11.5 mph - 0.00 in   Clear
2:51 PM 95.0 °F 99.5 °F 68.0 °F 41% 30.18 in 10.0 mi North 11.5 mph 19.6 mph N/A   Clear
3:51 PM 93.9 °F 99.1 °F 69.1 °F 44% 30.17 in 10.0 mi NNW 9.2 mph - N/A   Partly Cloudy
4:51 PM 93.9 °F 99.1 °F 69.1 °F 44% 30.16 in 10.0 mi NW 10.4 mph 17.3 mph N/A   Scattered Clouds
5:51 PM 93.0 °F 95.9 °F 66.0 °F 41% 30.15 in 10.0 mi NNW 9.2 mph - N/A   Partly Cloudy
6:51 PM 93.0 °F 96.4 °F 66.9 °F 42% 30.16 in 10.0 mi NNW 6.9 mph - N/A   Clear
7:51 PM 87.1 °F 92.0 °F 70.0 °F 57% 30.17 in 10.0 mi NNW 4.6 mph - N/A   Partly Cloudy
8:51 PM 86.0 °F 90.7 °F 70.0 °F 59% 30.17 in 10.0 mi WNW 4.6 mph - N/A   Clear
9:51 PM - - - N/A% 30.18 in 10.0 mi NW 4.6 mph - N/A   Partly Cloudy
10:51 PM 82.0 °F 89.4 °F 75.9 °F 82% 30.19 in 10.0 mi SSE 5.8 mph - N/A   Clear
11:51 PM 81.0 °F 87.3 °F 75.9 °F 85% 30.18 in 10.0 mi South 3.5 mph - N/A   Clear